Location: Brunembert
(50.7122°N, 1.8935°E)
Time: 04:34:55
(UTC+00:00)

Iridium 4 Rocket - Pass Details

Date: 22 April 2021
Orbit: 586 x 903 km, 86.9° (Epoch: 06 May)

Event Time Altitude Azimuth Distance (km) Brightness Sun altitude
Exits shadow 23:38:02 60° 267° (W) 882 3.7 -26.7°
Maximum altitude 23:38:12 61° 277° (W) 881 3.7 -26.7°
Drops below altitude 10° 23:43:37 10° 358° (N) 2,436 7.1 -26.7°
Sets 23:46:10 0° 2° (N) 3,418 8.2 -26.7°
